Time,TemperatureF,DewpointF,PressureIn,WindDirection,WindDirectionDegrees,WindSpeedMPH,WindSpeedGustMPH,Humidity,HourlyPrecipIn,Conditions,Clouds,dailyrainin,SoftwareType,DateUTC
2013-10-16 00:13:00,44.0,43.0,29.91,NNW,340,2.0,6.0,95,0.00,,,0.36,,2013-10-16 05:13:00,
2013-10-16 00:22:00,44.0,43.0,29.91,WNW,287,1.0,5.0,95,0.00,,,0.07,,2013-10-16 05:22:00,
2013-10-16 00:43:00,44.0,43.0,29.91,NW,312,2.0,6.0,95,0.00,,,0.07,,2013-10-16 05:43:00,
2013-10-16 00:53:00,44.0,43.0,29.91,NW,313,3.0,6.0,95,0.00,,,0.07,,2013-10-16 05:53:00,
2013-10-16 01:12:00,44.0,43.0,29.92,NW,305,2.0,7.0,95,0.00,,,0.07,,2013-10-16 06:12:00,
2013-10-16 01:22:00,44.0,43.0,29.92,WNW,301,1.0,5.0,95,0.00,,,0.03,,2013-10-16 06:22:00,
2013-10-16 01:43:00,44.0,43.0,29.92,West,281,2.0,7.0,95,0.00,,,0.03,,2013-10-16 06:43:00,
2013-10-16 01:52:00,44.0,43.0,29.93,WNW,300,2.0,5.0,95,0.00,,,0.03,,2013-10-16 06:52:00,
2013-10-16 02:11:00,44.0,43.0,29.93,WNW,291,2.0,7.0,95,0.00,,,0.03,,2013-10-16 07:11:00,
2013-10-16 02:21:00,44.0,43.0,29.93,NW,316,2.0,5.0,95,0.00,,,0.03,,2013-10-16 07:21:00,
2013-10-16 02:42:00,44.0,43.0,29.93,NE,43,2.0,6.0,95,0.00,,,0.03,,2013-10-16 07:42:00,
2013-10-16 02:53:00,44.0,43.0,29.93,WNW,290,2.0,6.0,95,0.00,,,0.03,,2013-10-16 07:53:00,
2013-10-16 03:11:00,44.0,43.0,29.94,NNW,344,1.0,9.0,95,0.00,,,0.03,,2013-10-16 08:11:00,
2013-10-16 03:21:00,44.0,43.0,29.93,NW,307,3.0,6.0,95,0.00,,,0.03,,2013-10-16 08:21:00,
2013-10-16 03:42:00,44.0,43.0,29.93,NNE,33,2.0,5.0,95,0.00,,,0.03,,2013-10-16 08:42:00,
2013-10-16 03:52:00,44.0,42.0,29.94,North,1,3.0,8.0,94,0.01,,,0.04,,2013-10-16 08:52:00,
2013-10-16 04:11:00,44.0,42.0,29.93,WNW,298,4.0,8.0,94,0.01,,,0.04,,2013-10-16 09:11:00,
2013-10-16 04:22:00,44.0,42.0,29.93,NW,323,3.0,8.0,94,0.01,,,0.04,,2013-10-16 09:22:00,
2013-10-16 04:43:00,44.0,42.0,29.94,NW,323,3.0,9.0,94,0.01,,,0.04,,2013-10-16 09:43:00,
2013-10-16 04:54:00,44.0,42.0,29.94,NNW,328,3.0,7.0,94,0.00,,,0.04,,2013-10-16 09:54:00,
2013-10-16 05:12:00,44.0,42.0,29.95,NW,314,2.0,7.0,94,0.00,,,0.04,,2013-10-16 10:12:00,
2013-10-16 05:23:00,44.0,42.0,29.95,SSW,204,3.0,10.0,94,0.00,,,0.04,,2013-10-16 10:23:00,
2013-10-16 05:42:00,44.0,42.0,29.96,NW,304,2.0,6.0,94,0.00,,,0.04,,2013-10-16 10:42:00,
2013-10-16 05:53:00,44.0,42.0,29.96,NW,323,3.0,7.0,94,0.00,,,0.04,,2013-10-16 10:53:00,
2013-10-16 06:12:00,44.0,42.0,29.96,NW,312,2.0,7.0,94,0.00,,,0.04,,2013-10-16 11:12:00,
2013-10-16 06:22:00,43.0,41.0,29.96,NNW,330,2.0,7.0,94,0.00,,,0.04,,2013-10-16 11:22:00,
2013-10-16 06:42:00,43.0,41.0,29.96,NW,310,2.0,5.0,94,0.00,,,0.04,,2013-10-16 11:42:00,
2013-10-16 06:52:00,43.0,41.0,29.97,NW,306,2.0,6.0,94,0.00,,,0.04,,2013-10-16 11:52:00,
2013-10-16 07:12:00,43.0,41.0,29.97,NW,309,3.0,8.0,94,0.00,,,0.04,,2013-10-16 12:12:00,
2013-10-16 07:21:00,43.0,41.0,29.98,NW,317,2.0,6.0,94,0.00,,,0.04,,2013-10-16 12:21:00,
2013-10-16 07:42:00,43.0,41.0,29.98,NW,305,2.0,6.0,94,0.00,,,0.04,,2013-10-16 12:42:00,
2013-10-16 07:52:00,43.0,41.0,29.98,NW,308,2.0,5.0,94,0.00,,,0.04,,2013-10-16 12:52:00,
2013-10-16 08:11:00,43.0,41.0,29.98,NNW,345,3.0,6.0,93,0.00,,,0.04,,2013-10-16 13:11:00,
2013-10-16 08:22:00,43.0,41.0,29.98,NW,308,1.0,7.0,93,0.00,,,0.04,,2013-10-16 13:22:00,
2013-10-16 08:42:00,43.0,41.0,29.99,NNW,328,1.0,5.0,93,0.00,,,0.04,,2013-10-16 13:42:00,
2013-10-16 08:52:00,43.0,41.0,29.99,WNW,302,1.0,6.0,93,0.00,,,0.04,,2013-10-16 13:52:00,
2013-10-16 09:11:00,43.0,41.0,30.00,NW,305,1.0,4.0,92,0.00,,,0.04,,2013-10-16 14:11:00,
2013-10-16 09:22:00,43.0,41.0,30.00,WNW,287,1.0,4.0,92,0.00,,,0.04,,2013-10-16 14:22:00,
2013-10-16 09:42:00,43.0,41.0,30.00,NW,312,1.0,3.0,92,0.00,,,0.04,,2013-10-16 14:42:00,
2013-10-16 09:52:00,43.0,41.0,30.01,WNW,298,1.0,4.0,92,0.00,,,0.04,,2013-10-16 14:52:00,
2013-10-16 10:11:00,43.0,41.0,30.01,WNW,288,1.0,5.0,91,0.00,,,0.04,,2013-10-16 15:11:00,
2013-10-16 10:22:00,44.0,41.0,30.02,WNW,295,1.0,6.0,90,0.00,,,0.04,,2013-10-16 15:22:00,
2013-10-16 10:43:00,44.0,41.0,30.01,NNE,23,2.0,6.0,89,0.00,,,0.04,,2013-10-16 15:43:00,
2013-10-16 10:53:00,45.0,42.0,30.02,NNW,342,1.0,5.0,89,0.00,,,0.04,,2013-10-16 15:53:00,
2013-10-16 11:13:00,45.0,41.0,30.02,NNW,331,3.0,7.0,86,0.00,,,0.04,,2013-10-16 16:13:00,
2013-10-16 11:23:00,45.0,42.0,30.01,NW,316,2.0,6.0,88,0.00,,,0.04,,2013-10-16 16:23:00,
2013-10-16 11:42:00,46.0,41.0,30.02,NW,312,2.0,6.0,84,0.00,,,0.04,,2013-10-16 16:42:00,
2013-10-16 11:53:00,46.0,41.0,30.02,WNW,300,1.0,8.0,83,0.00,,,0.04,,2013-10-16 16:53:00,
2013-10-16 12:12:00,46.0,41.0,30.02,WNW,303,2.0,9.0,81,0.00,,,0.04,,2013-10-16 17:12:00,
2013-10-16 12:22:00,46.0,41.0,30.02,WNW,288,2.0,8.0,81,0.00,,,0.04,,2013-10-16 17:22:00,
2013-10-16 12:43:00,47.0,42.0,30.02,North,360,0.0,4.0,82,0.00,,,0.04,,2013-10-16 17:43:00,
2013-10-16 12:52:00,47.0,41.0,30.02,WNW,303,1.0,4.0,79,0.00,,,0.04,,2013-10-16 17:52:00,
2013-10-16 13:11:00,47.0,40.0,30.02,WNW,302,3.0,6.0,76,0.00,,,0.04,,2013-10-16 18:11:00,
2013-10-16 13:22:00,47.0,41.0,30.01,West,269,0.0,4.0,79,0.00,,,0.04,,2013-10-16 18:22:00,
2013-10-16 13:42:00,48.0,41.0,30.01,NW,318,1.0,7.0,76,0.00,,,0.04,,2013-10-16 18:42:00,
2013-10-16 13:52:00,48.0,41.0,30.00,NW,308,0.0,3.0,77,0.00,,,0.04,,2013-10-16 18:52:00,
2013-10-16 14:11:00,47.0,40.0,30.00,NW,306,0.0,4.0,77,0.00,,,0.04,,2013-10-16 19:11:00,
2013-10-16 14:22:00,48.0,40.0,30.00,NW,309,1.0,4.0,75,0.00,,,0.04,,2013-10-16 19:22:00,
2013-10-16 14:42:00,48.0,40.0,30.00,NW,320,0.0,3.0,73,0.00,,,0.04,,2013-10-16 19:42:00,
2013-10-16 14:52:00,48.0,40.0,30.00,NW,320,0.0,3.0,73,0.00,,,0.04,,2013-10-16 19:52:00,
2013-10-16 15:12:00,48.0,41.0,29.99,SW,235,0.0,3.0,76,0.00,,,0.04,,2013-10-16 20:12:00,
2013-10-16 15:22:00,48.0,41.0,29.99,NW,306,0.0,5.0,76,0.00,,,0.04,,2013-10-16 20:22:00,
2013-10-16 15:43:00,48.0,40.0,29.99,WNW,299,1.0,4.0,74,0.00,,,0.04,,2013-10-16 20:43:00,
2013-10-16 15:52:00,48.0,40.0,29.99,NW,310,2.0,5.0,73,0.00,,,0.04,,2013-10-16 20:52:00,
2013-10-16 16:11:00,48.0,40.0,29.98,WNW,294,0.0,5.0,73,0.00,,,0.04,,2013-10-16 21:11:00,
2013-10-16 16:23:00,49.0,40.0,29.98,West,276,0.0,4.0,72,0.00,,,0.04,,2013-10-16 21:23:00,
2013-10-16 16:44:00,51.0,41.0,29.97,NNW,331,0.0,2.0,68,0.00,,,0.04,,2013-10-16 21:44:00,
2013-10-16 16:54:00,53.0,42.0,29.97,West,263,0.0,2.0,65,0.00,,,0.04,,2013-10-16 21:54:00,
2013-10-16 17:14:00,53.0,41.0,29.96,NNE,20,0.0,2.0,64,0.00,,,0.04,,2013-10-16 22:14:00,
2013-10-16 17:24:00,52.0,40.0,29.96,NNE,26,0.0,3.0,64,0.00,,,0.04,,2013-10-16 22:24:00,
2013-10-16 17:42:00,52.0,41.0,29.95,North,356,0.0,0.0,65,0.00,,,0.04,,2013-10-16 22:42:00,
2013-10-16 17:54:00,50.0,39.0,29.95,SSW,200,1.0,2.0,66,0.00,,,0.04,,2013-10-16 22:54:00,
2013-10-16 18:12:00,49.0,39.0,29.95,SE,137,0.0,2.0,68,0.00,,,0.04,,2013-10-16 23:12:00,
2013-10-16 18:22:00,48.0,39.0,29.95,SSE,165,0.0,1.0,71,0.00,,,0.04,,2013-10-16 23:22:00,
2013-10-16 18:42:00,47.0,39.0,29.95,SSE,159,0.0,1.0,74,0.00,,,0.04,,2013-10-16 23:42:00,
2013-10-16 18:53:00,46.0,39.0,29.95,SSE,160,0.0,1.0,76,0.00,,,0.04,,2013-10-16 23:53:00,
2013-10-16 19:11:00,44.0,38.0,29.95,SSE,159,0.0,1.0,78,0.00,,,0.04,,2013-10-17 00:11:00,
2013-10-16 19:22:00,43.0,38.0,29.96,SSE,165,1.0,2.0,81,0.00,,,0.03,,2013-10-17 00:22:00,
2013-10-16 19:42:00,43.0,38.0,29.96,SSW,197,1.0,4.0,82,0.00,,,0.03,,2013-10-17 00:42:00,
2013-10-16 19:52:00,42.0,37.0,29.96,South,186,2.0,4.0,83,0.00,,,0.03,,2013-10-17 00:52:00,
2013-10-16 20:12:00,42.0,38.0,29.96,SSW,205,1.0,5.0,84,0.00,,,0.03,,2013-10-17 01:12:00,
2013-10-16 20:22:00,41.0,37.0,29.96,South,180,2.0,4.0,85,0.00,,,0.02,,2013-10-17 01:22:00,
2013-10-16 20:42:00,40.0,36.0,29.96,South,173,1.0,2.0,86,0.00,,,0.02,,2013-10-17 01:42:00,
2013-10-16 20:52:00,40.0,36.0,29.96,South,191,1.0,3.0,86,0.00,,,0.02,,2013-10-17 01:52:00,
2013-10-16 21:12:00,39.0,35.0,29.96,South,180,0.0,2.0,87,0.00,,,0.02,,2013-10-17 02:12:00,
2013-10-16 21:22:00,38.0,35.0,29.96,SSW,195,0.0,2.0,88,0.00,,,0.02,,2013-10-17 02:22:00,
2013-10-16 22:12:00,38.0,35.0,29.96,SSE,160,3.0,5.0,90,0.00,,,0.02,,2013-10-17 03:12:00,
2013-10-16 22:22:00,38.0,35.0,29.96,SSW,195,2.0,5.0,90,0.00,,,0.01,,2013-10-17 03:22:00,
2013-10-16 22:44:00,38.0,35.0,29.96,SSW,211,1.0,3.0,90,0.00,,,0.01,,2013-10-17 03:44:00,
2013-10-16 22:54:00,38.0,36.0,29.96,South,177,2.0,4.0,91,0.00,,,0.01,,2013-10-17 03:54:00,
2013-10-16 23:14:00,38.0,35.0,29.96,SSW,205,1.0,3.0,90,0.00,,,0.01,,2013-10-17 04:14:00,
2013-10-16 23:24:00,38.0,35.0,29.96,SW,221,0.0,2.0,90,0.00,,,0.01,,2013-10-17 04:24:00,
2013-10-16 23:43:00,39.0,36.0,29.96,WSW,239,2.0,4.0,89,0.00,,,0.01,,2013-10-17 04:43:00,
2013-10-16 23:54:00,39.0,36.0,29.96,SW,217,3.0,4.0,88,0.00,,,0.01,,2013-10-17 04:54:00,